IN3XSV-13 Weather Reports


Display with metric or nautical units.
time (UTC)temp
F
wind
direction
speed
MPH
gust
MPH
rain 1hr
in
rain 24hr
in
rain mn
in
humidity
%
barometer
mb
20260507075344 66 67 0.0 0.0 0.00 0.00 0.00 63 9952.6
20260507074844 65 45 0.0 0.0 0.00 0.00 0.00 66 9952.5
20260507074344 64 337 0.0 0.0 0.00 0.00 0.00 66 9952.4
20260507073844 65 67 0.0 0.0 0.00 0.00 0.00 66 9952.5
20260507073344 64 315 0.0 0.0 0.00 0.00 0.00 68 9952.5
20260507072844 63 67 0.0 57.0 0.00 0.00 0.00 69 9952.5
20260507072344 63 45 0.0 0.0 0.00 0.00 0.00 70 9952.5
20260507071844 62 315 0.0 0.0 0.00 0.00 0.00 69 9952.5
20260507071344 63 90 0.0 1.0 0.00 0.00 0.00 71 9952.5
20260507070844 62 45 0.0 0.0 0.00 0.00 0.00 72 9952.4
20260507070344 62 337 0.0 0.0 0.00 0.00 0.00 73 9952.4
20260507065844 60 112 0.0 0.0 0.00 0.00 0.00 74 9952.4
20260507065344 60 157 0.0 0.0 0.00 0.00 0.00 76 9952.4
20260507064844 60 90 0.0 0.0 0.00 0.00 0.00 77 9952.4
20260507064345 58 112 0.0 0.0 0.00 0.00 0.00 77 9952.3
20260507063844 60 337 0.0 0.0 0.00 0.00 0.00 75 9952.3
20260507063344 61 67 0.0 0.0 0.00 0.00 0.00 78 9952.3
20260507062844 60 45 0.0 0.0 0.00 0.00 0.00 78 9952.4
20260507062344 61 45 0.0 4.0 0.00 0.00 0.00 81 9952.4
20260507061844 61 202 0.0 0.0 0.00 0.00 0.00 84 9952.4
20260507061344 57 202 0.0 0.0 0.00 0.00 0.00 87 9952.3
20260507060844 55 202 0.0 0.0 0.00 0.00 0.00 89 9952.4
20260507060344 52 202 0.0 1.0 0.00 0.00 0.00 89 9952.4
20260507055844 52 202 0.0 0.0 0.00 0.00 0.00 90 9952.3
20260507055344 51 180 0.0 0.0 0.00 0.00 0.00 90 9952.4
20260507054844 51 202 0.0 0.0 0.00 0.00 0.00 91 9952.4
20260507054344 50 202 0.0 0.0 0.00 0.00 0.00 91 9952.3
20260507053844 50 337 0.0 0.0 0.00 0.00 0.00 91 9952.3
20260507053344 50 202 0.0 0.0 0.00 0.00 0.00 91 9952.1
20260507052844 49 202 0.0 0.0 0.00 0.00 0.00 91 9952.1
20260507052344 48 202 0.0 0.0 0.00 0.00 0.00 92 9952.2
20260507051844 48 202 0.0 0.0 0.00 0.00 0.00 92 9952.1
20260507051344 47 202 0.0 0.0 0.00 0.00 0.00 91 9952.1
20260507050844 47 202 0.0 0.0 0.00 0.00 0.00 91 9952.3
20260507050344 47 202 0.0 0.0 0.00 0.00 0.00 91 9952.3
20260507045845 47 202 0.0 0.0 0.00 0.00 0.00 91 9952.2
20260507045344 47 202 0.0 0.0 0.00 0.00 0.00 91 9952.0
20260507044844 47 202 0.0 0.0 0.00 0.00 0.00 91 9952.0
20260507044344 47 202 0.0 0.0 0.00 0.00 0.00 91 9951.9
20260507043844 46 202 0.0 0.0 0.00 0.00 0.00 91 9951.7
20260507043344 46 202 0.0 0.0 0.00 0.00 0.00 91 9951.7
20260507042844 46 202 0.0 0.0 0.00 0.00 0.00 91 9951.7
20260507042344 46 202 0.0 0.0 0.00 0.00 0.00 91 9951.6
20260507041844 46 202 0.0 0.0 0.00 0.00 0.00 91 9951.6
20260507041344 46 180 0.0 0.0 0.00 0.00 0.00 91 9951.7
20260507040844 46 180 0.0 0.0 0.00 0.00 0.00 91 9951.7
20260507040344 46 202 0.0 0.0 0.00 0.00 0.00 91 9951.7
20260507035844 46 202 0.0 0.0 0.00 0.00 0.00 91 9951.6
20260507035344 46 202 0.0 0.0 0.00 0.00 0.00 91 9951.5
20260507034844 46 202 0.0 0.0 0.00 0.00 0.00 91 9951.4
20260507034344 46 202 0.0 0.0 0.00 0.00 0.00 91 9951.5
20260507033844 46 202 0.0 0.0 0.00 0.00 0.00 91 9951.4
20260507033345 46 202 0.0 0.0 0.00 0.00 0.00 91 9951.4
20260507032845 46 180 0.0 4.0 0.00 0.00 0.00 91 9951.3
20260507032345 46 225 3.0 4.0 0.00 0.00 0.00 92 9951.3
20260507031844 46 202 0.0 0.0 0.00 0.00 0.00 92 9951.2
20260507031345 46 202 0.0 0.0 0.00 0.00 0.00 92 9951.3
20260507030844 46 202 0.0 2.0 0.00 0.00 0.00 91 9951.3
20260507030345 46 202 0.0 0.0 0.00 0.00 0.00 92 9951.4
20260507025845 46 202 0.0 0.0 0.00 0.00 0.00 92 9951.3
20260507025345 45 202 0.0 2.0 0.00 0.00 0.00 92 9951.3
20260507024845 45 202 0.0 2.0 0.00 0.00 0.00 92 9951.3
20260507024345 45 180 0.0 2.0 0.00 0.00 0.00 91 9951.2
20260507023845 46 180 0.0 2.0 0.00 0.00 0.00 91 9951.2
20260507023345 46 202 0.0 0.0 0.00 0.00 0.00 91 9951.2
20260507022845 46 202 0.0 0.0 0.00 0.00 0.00 91 9951.2
20260507022345 46 202 0.0 0.0 0.00 0.00 0.00 91 9951.2
20260507021845 46 202 0.0 0.0 0.00 0.00 0.00 91 9951.2
20260507021345 46 202 0.0 0.0 0.00 0.00 0.00 91 9951.4
20260507020845 46 202 0.0 0.0 0.00 0.00 0.00 91 9951.4
20260507020345 46 202 0.0 0.0 0.00 0.00 0.00 91 9951.4
20260507015845 46 225 0.0 2.0 0.00 0.00 0.00 91 9951.3
20260507015345 46 202 0.0 0.0 0.00 0.00 0.00 91 9951.1
20260507014845 46 202 0.0 0.0 0.00 0.00 0.00 91 9951.1
20260507014345 46 202 0.0 0.0 0.00 0.00 0.00 91 9951.1
20260507013845 46 202 0.0 0.0 0.00 0.00 0.00 91 9951.2
20260507013345 46 202 0.0 0.0 0.00 0.00 0.00 91 9951.1
20260507012845 46 225 0.0 0.0 0.00 0.00 0.00 91 9951.2
20260507012345 46 180 0.0 0.0 0.00 0.00 0.00 91 9951.3
20260507011845 47 180 0.0 0.0 0.00 0.00 0.00 91 9951.2
20260507011345 46 180 0.0 0.0 0.00 0.00 0.00 91 9951.0
20260507010845 46 180 0.0 0.0 0.00 0.00 0.00 91 9951.1
20260507010345 46 202 0.0 0.0 0.00 0.00 0.00 91 9951.1
20260507005845 46 225 0.0 3.0 0.00 0.00 0.00 91 9951.1
20260507005345 46 180 0.0 0.0 0.00 0.00 0.00 91 9951.1
20260507004845 47 202 0.0 0.0 0.00 0.00 0.00 91 9951.1
20260507004345 47 202 0.0 0.0 0.00 0.00 0.00 91 9951.0
20260507003845 47 202 0.0 0.0 0.00 0.00 0.00 91 9951.1
20260507003345 47 202 0.0 1.0 0.00 0.00 0.00 91 9951.0
20260507002845 47 202 0.0 0.0 0.00 0.00 0.00 91 9951.0
20260507002345 48 202 0.0 1.0 0.00 0.00 0.00 91 9951.1
20260507001845 47 225 1.0 1.0 0.00 0.00 0.00 91 9951.1
20260507001345 48 202 0.0 0.0 0.00 0.00 0.00 90 9951.0
20260507000845 48 202 0.0 0.0 0.00 0.00 0.00 91 9951.0
20260507000345 48 225 0.0 0.0 0.00 0.00 0.00 91 9951.0
20260506235845 48 225 0.0 0.0 0.00 0.00 0.00 91 9951.0
20260506235345 48 225 0.0 1.0 0.00 0.00 0.00 91 9950.9
20260506234845 48 225 0.0 0.0 0.00 0.00 0.00 90 9950.9
20260506234345 48 225 0.0 3.0 0.00 0.00 0.00 90 9950.7
20260506233845 48 202 3.0 3.0 0.00 0.00 0.00 90 9950.7
20260506233345 48 202 0.0 0.0 0.00 0.00 0.00 90 9950.7
20260506232845 49 225 0.0 4.0 0.00 0.00 0.00 90 9950.7
20260506232345 48 202 0.0 4.0 0.00 0.00 0.00 90 9950.8
20260506231845 49 180 0.0 0.0 0.00 0.00 0.00 90 9950.9
20260506231345 49 202 0.0 0.0 0.00 0.00 0.00 90 9951.0
20260506230845 49 202 0.0 0.0 0.00 0.00 0.00 90 9951.1
20260506230345 49 180 0.0 0.0 0.00 0.00 0.00 90 9951.0
20260506225845 49 180 0.0 0.0 0.00 0.00 0.00 90 9951.0
20260506225345 49 180 0.0 0.0 0.00 0.00 0.00 90 9951.0
20260506224845 50 180 0.0 0.0 0.00 0.00 0.00 90 9950.9
20260506224345 50 180 0.0 0.0 0.00 0.00 0.00 90 9951.1
20260506223845 50 202 0.0 0.0 0.00 0.00 0.00 90 9951.0
20260506223345 50 180 0.0 0.0 0.00 0.00 0.00 90 9951.0
20260506222845 50 180 0.0 0.0 0.00 0.00 0.00 90 9950.9
20260506222345 50 180 0.0 4.0 0.00 0.00 0.00 90 9951.0
20260506221845 50 202 1.0 4.0 0.00 0.00 0.00 90 9950.9
20260506221345 50 315 0.0 0.0 0.00 0.00 0.00 90 9951.3
20260506220845 50 202 0.0 2.0 0.00 0.00 0.00 89 9951.3
20260506220345 50 202 0.0 0.0 0.00 0.00 0.00 90 9951.3
20260506215845 0 202 0.0 0.0 0.00 0.06 0.00 9951.2
20260506215345 0 202 0.0 0.0 0.00 0.06 0.00 9951.0
20260506214845 0 202 0.0 0.0 0.00 0.06 0.00 9951.0
20260506214345 0 202 0.0 0.0 0.00 0.06 0.00 9951.0
20260506213845 0 202 0.0 0.0 0.00 0.06 0.00 9950.8
20260506213345 0 202 0.0 0.0 0.00 0.06 0.00 9950.9
20260506212845 0 202 0.0 0.0 0.00 0.06 0.00 9950.7
20260506212345 0 202 0.0 0.0 0.00 0.06 0.00 9950.8
20260506211845 0 202 0.0 0.0 0.00 0.06 0.00 9950.8
20260506211345 0 202 0.0 0.0 0.00 0.06 0.00 9951.0
20260506210845 0 202 0.0 0.0 0.00 0.06 0.00 9951.0
20260506210345 0 202 0.0 0.0 0.00 0.06 0.00 9951.0
20260506205845 0 202 0.0 0.0 0.00 0.06 0.00 9950.9
20260506205345 0 202 0.0 0.0 0.00 0.06 0.00 9950.7
20260506204845 0 202 0.0 0.0 0.00 0.06 0.00 9950.7
20260506204345 0 202 0.0 0.0 0.00 0.06 0.00 9950.7
20260506203845 0 202 0.0 0.0 0.00 0.06 0.00 9950.7
20260506203345 0 202 0.0 0.0 0.00 0.06 0.00 9950.6
20260506202845 0 202 0.0 0.0 0.00 0.06 0.00 9950.6
20260506202345 0 202 0.0 0.0 0.00 0.06 0.00 9950.6
20260506201845 0 202 0.0 0.0 0.00 0.06 0.00 9950.6
20260506201345 0 202 0.0 0.0 0.00 0.06 0.00 9950.5
20260506200845 0 202 0.0 0.0 0.00 0.06 0.00 9950.4
20260506200345 0 202 0.0 0.0 0.00 0.06 0.00 9950.3
20260506195845 0 202 0.0 0.0 0.00 0.06 0.00 9950.4
20260506195345 0 202 0.0 0.0 0.00 0.06 0.00 9950.2
20260506194845 0 202 0.0 0.0 0.00 0.06 0.00 9950.2
20260506194345 0 202 0.0 0.0 0.00 0.06 0.00 9950.1
20260506193845 0 202 0.0 0.0 0.00 0.06 0.00 9949.9
20260506193345 0 202 0.0 0.0 0.00 0.06 0.00 9949.9
20260506192845 0 202 0.0 0.0 0.00 0.06 0.00 9949.8
20260506192345 0 202 0.0 0.0 0.00 0.06 0.00 9949.8
20260506191845 0 202 0.0 0.0 0.00 0.06 0.00 9949.7
20260506191345 0 202 0.0 0.0 0.00 0.06 0.00 9949.6
20260506190845 0 202 0.0 0.0 0.00 0.06 0.00 9949.5
20260506190345 0 202 0.0 0.0 0.00 0.06 0.00 9949.4
20260506185845 0 202 0.0 0.0 0.00 0.06 0.00 9949.4
20260506185345 0 202 0.0 0.0 0.00 0.06 0.00 9949.5
20260506184845 0 202 0.0 0.0 0.00 0.06 0.00 9949.4
20260506184345 0 202 0.0 0.0 0.00 0.06 0.00 9949.3
20260506183845 0 202 0.0 0.0 0.00 0.06 0.00 9949.4
20260506183345 0 202 0.0 0.0 0.00 0.06 0.00 9949.4
20260506182845 0 202 0.0 0.0 0.00 0.06 0.00 9949.2
20260506182345 0 202 0.0 0.0 0.00 0.06 0.00 9949.1
20260506181845 0 202 0.0 0.0 0.00 0.06 0.00 9949.2
20260506181345 0 202 0.0 0.0 0.00 0.06 0.00 9949.1
20260506180845 0 202 0.0 0.0 0.00 0.06 0.00 9949.0
20260506180345 0 202 0.0 0.0 0.00 0.06 0.00 9949.0
20260506175845 0 202 0.0 0.0 0.00 0.06 0.00 9949.0
20260506175345 0 202 0.0 0.0 0.00 0.06 0.00 9949.1
20260506174845 0 202 0.0 0.0 0.00 0.06 0.00 9949.0
20260506174345 0 202 0.0 0.0 0.00 0.06 0.00 9949.0
20260506173845 0 202 0.0 0.0 0.00 0.06 0.00 9948.9
20260506173346 0 202 0.0 0.0 0.00 0.06 0.00 9948.8
20260506172846 0 202 0.0 0.0 0.00 0.06 0.00 9948.7
20260506172346 0 202 0.0 0.0 0.00 0.06 0.00 9948.6
20260506171846 0 202 0.0 0.0 0.00 0.06 0.00 9948.6
20260506171346 0 202 0.0 0.0 0.00 0.06 0.00 9948.6
20260506170846 0 202 0.0 0.0 0.00 0.06 0.00 9948.6
20260506170346 0 202 0.0 0.0 0.00 0.06 0.00 9948.5
20260506165846 0 202 0.0 0.0 0.00 0.06 0.00 9948.4
20260506165346 0 202 0.0 0.0 0.00 0.06 0.00 9948.3
20260506164846 0 202 0.0 0.0 0.00 0.06 0.00 9948.4
20260506164346 0 202 0.0 0.0 0.00 0.06 0.00 9948.4
20260506163846 0 202 0.0 0.0 0.00 0.06 0.00 9948.4
20260506163346 0 202 0.0 0.0 0.00 0.06 0.00 9948.2
20260506162846 0 202 0.0 0.0 0.00 0.06 0.00 9948.3
20260506162346 0 202 0.0 0.0 0.00 0.06 0.00 9948.4
20260506161846 0 202 0.0 0.0 0.00 0.06 0.00 9948.6
20260506161346 0 202 0.0 0.0 0.00 0.06 0.00 9948.4
20260506160846 0 202 0.0 0.0 0.00 0.06 0.00 9948.5
20260506160346 0 202 0.0 0.0 0.00 0.06 0.00 9948.5
20260506155846 0 202 0.0 0.0 0.00 0.06 0.00 9948.6
20260506155346 0 202 0.0 0.0 0.00 0.06 0.00 9948.6
20260506154846 0 202 0.0 0.0 0.00 0.06 0.00 9948.5
20260506154346 0 202 0.0 0.0 0.00 0.06 0.00 9948.4
20260506153846 0 202 0.0 0.0 0.00 0.06 0.00 9948.3
20260506153346 0 202 0.0 0.0 0.00 0.06 0.00 9948.4
20260506152846 0 202 0.0 0.0 0.00 0.06 0.00 9948.4
20260506152346 0 202 0.0 0.0 0.00 0.06 0.00 9948.5
20260506151846 0 202 0.0 0.0 0.00 0.06 0.00 9948.6
20260506151346 0 202 0.0 0.0 0.00 0.06 0.00 9948.6
20260506150846 0 202 0.0 0.0 0.00 0.06 0.00 9948.7
20260506150346 0 202 0.0 0.0 0.00 0.06 0.00 9948.8
20260506145846 0 202 0.0 0.0 0.00 0.06 0.00 9948.7
20260506145346 0 202 0.0 0.0 0.00 0.06 0.00 9948.7
20260506144846 0 202 0.0 0.0 0.00 0.06 0.00 9948.9
20260506144346 0 202 0.0 0.0 0.00 0.06 0.00 9948.7
20260506143846 0 202 0.0 0.0 0.00 0.06 0.00 9948.9
20260506143346 0 202 0.0 0.0 0.00 0.06 0.00 9948.8
20260506142846 0 202 0.0 0.0 0.00 0.06 0.00 9948.9
20260506142346 0 202 0.0 0.0 0.00 0.06 0.00 9948.7
20260506141846 0 202 0.0 0.0 0.00 0.06 0.00 9948.9
20260506141346 0 202 0.0 0.0 0.00 0.06 0.00 9948.9
20260506140846 0 202 0.0 0.0 0.00 0.06 0.00 9949.0
20260506140346 0 202 0.0 0.0 0.00 0.06 0.00 9949.3
20260506135846 0 202 0.0 0.0 0.00 0.06 0.00 9949.3
20260506135346 0 202 0.0 0.0 0.00 0.06 0.00 9949.4
20260506134846 0 202 0.0 0.0 0.00 0.06 0.00 9949.5
20260506134346 0 202 0.0 0.0 0.00 0.06 0.00 9949.7
20260506133846 0 202 0.0 0.0 0.00 0.06 0.00 9949.6
20260506133346 0 202 0.0 0.0 0.00 0.06 0.00 9949.5
20260506132846 0 202 0.0 0.0 0.00 0.06 0.00 9949.7
20260506132346 0 202 0.0 0.0 0.00 0.06 0.00 9949.8
20260506131846 0 202 0.0 0.0 0.00 0.06 0.00 9949.9
20260506131346 0 202 0.0 0.0 0.00 0.06 0.00 9949.8
20260506130846 0 202 0.0 0.0 0.00 0.06 0.00 9949.7
20260506130346 0 202 0.0 0.0 0.00 0.06 0.00 9949.6
20260506125846 0 202 0.0 0.0 0.00 0.06 0.00 9949.6
20260506125346 0 202 0.0 0.0 0.00 0.06 0.00 9949.7
20260506124846 0 202 0.0 0.0 0.00 0.06 0.00 9949.7
20260506124350 0 202 0.0 0.0 0.00 0.06 0.00 9949.4
20260506123846 0 202 0.0 0.0 0.00 0.06 0.00 9949.1
20260506123346 0 202 0.0 0.0 0.00 0.06 0.00 9948.8
20260506122846 0 202 0.0 0.0 0.00 0.06 0.00 9948.7
20260506122346 0 202 0.0 0.0 0.00 0.06 0.00 9948.5
20260506121846 0 202 0.0 0.0 0.00 0.06 0.00 9948.5
20260506121346 0 202 0.0 0.0 0.00 0.06 0.00 9948.4
20260506120846 0 202 0.0 0.0 0.00 0.06 0.00 9948.5
20260506120346 0 202 0.0 0.0 0.00 0.06 0.00 9948.6
20260506115846 0 202 0.0 0.0 0.00 0.06 0.00 9948.5
20260506115346 0 202 0.0 0.0 0.00 0.06 0.00 9948.6
20260506114846 0 202 0.0 0.0 0.00 0.06 0.00 9948.4
20260506114346 0 202 0.0 0.0 0.00 0.06 0.00 9948.3
20260506113846 0 202 0.0 0.0 0.00 0.06 0.00 9948.4
20260506113346 0 202 0.0 0.0 0.00 0.06 0.00 9948.6
20260506112846 0 202 0.0 0.0 0.00 0.06 0.00 9948.6
20260506112346 0 202 0.0 0.0 0.00 0.06 0.00 9948.5
20260506111846 0 202 0.0 0.0 0.00 0.06 0.00 9948.7
20260506111346 0 202 0.0 0.0 0.00 0.06 0.00 9948.9
20260506110847 0 202 0.0 0.0 0.00 0.06 0.00 9948.8
20260506110346 0 202 0.0 0.0 0.00 0.06 0.00 9949.0
20260506105846 0 202 0.0 0.0 0.00 0.06 0.00 9949.1
20260506105346 0 202 0.0 0.0 0.00 0.06 0.00 9949.2
20260506104846 0 202 0.0 0.0 0.00 0.06 0.00 9949.3
20260506104346 0 202 0.0 0.0 0.00 0.06 0.00 9949.4
20260506103846 0 202 0.0 0.0 0.00 0.06 0.00 9949.5
20260506103346 0 202 0.0 0.0 0.00 0.06 0.00 9949.5
20260506102846 0 202 0.0 0.0 0.00 0.06 0.00 9949.6
20260506102346 0 202 0.0 0.0 0.00 0.06 0.00 9949.5
20260506101846 0 202 0.0 0.0 0.00 0.06 0.00 9949.5
20260506101346 0 202 0.0 0.0 0.00 0.06 0.00 9949.5
20260506100846 0 202 0.0 0.0 0.00 0.06 0.00 9949.6
20260506100346 0 202 0.0 0.0 0.00 0.06 0.00 9949.6
20260506095846 0 202 0.0 0.0 0.00 0.06 0.00 9949.5
20260506095346 0 202 0.0 0.0 0.00 0.06 0.00 9949.6
20260506094846 0 202 0.0 0.0 0.00 0.06 0.00 9949.6
20260506094346 0 202 0.0 0.0 0.00 0.06 0.00 9949.5
20260506093846 0 202 0.0 0.0 0.00 0.06 0.00 9949.6
20260506093346 0 202 0.0 0.0 0.00 0.06 0.00 9949.4
20260506092846 0 202 0.0 0.0 0.00 0.06 0.00 9949.4
20260506092346 0 202 0.0 0.0 0.00 0.06 0.00 9949.5
20260506091846 0 202 0.0 0.0 0.00 0.06 0.00 9949.6
20260506091346 0 202 0.0 0.0 0.00 0.06 0.00 9949.6
20260506090846 0 202 0.0 0.0 0.00 0.06 0.00 9949.7
20260506090346 0 202 0.0 0.0 0.00 0.06 0.00 9949.8
20260506085846 0 202 0.0 0.0 0.00 0.06 0.00 9949.8
20260506085346 0 202 0.0 0.0 0.00 0.06 0.00 9949.8
20260506084846 0 202 0.0 0.0 0.00 0.06 0.00 9949.8
20260506084346 0 202 0.0 0.0 0.00 0.06 0.00 9949.7
20260506083846 57 202 5.0 5.0 0.00 0.06 0.00 84 9954.9
20260506083346 57 202 5.0 5.0 0.00 0.06 0.00 84 9949.4
20260506082846 57 202 5.0 6.0 0.02 0.06 0.00 84 9950.9
20260506082347 57 157 0.0 5.0 0.02 0.06 0.00 84 9949.8
20260506081846 56 337 0.0 0.0 0.02 0.06 0.00 84 9950.0
20260506081347 57 337 0.0 0.0 0.02 0.06 0.00 84 9950.0
20260506080847 57 45 1.0 5.0 0.02 0.06 0.00 84 9950.1
20260506080346 57 112 0.0 8.0 0.02 0.06 0.00 84 9950.2